Year,Month,Day,Hour,Minute,Value (Times are PST for temperature in C)
2007,05,29,00,00,9.00
2007,05,29,00,01,9.00
2007,05,29,00,02,9.00
2007,05,29,00,03,9.00
2007,05,29,00,04,9.00
2007,05,29,00,05,8.90
2007,05,29,00,06,8.90
2007,05,29,00,07,8.90
2007,05,29,00,08,8.90
2007,05,29,00,09,8.90
2007,05,29,00,10,8.80
2007,05,29,00,11,8.80
2007,05,29,00,12,8.80
2007,05,29,00,13,8.70
2007,05,29,00,14,8.70
2007,05,29,00,15,8.70
2007,05,29,00,16,8.70
2007,05,29,00,17,8.70
2007,05,29,00,18,8.70
2007,05,29,00,19,8.70
2007,05,29,00,20,8.70
2007,05,29,00,21,8.70
2007,05,29,00,22,8.60
2007,05,29,00,23,8.60
2007,05,29,00,24,8.60
2007,05,29,00,25,8.60
2007,05,29,00,26,8.60
2007,05,29,00,27,8.60
2007,05,29,00,28,8.60
2007,05,29,00,29,8.60
2007,05,29,00,30,8.50
2007,05,29,00,31,8.50
2007,05,29,00,32,8.50
2007,05,29,00,33,8.50
2007,05,29,00,34,8.50
2007,05,29,00,35,8.40
2007,05,29,00,36,8.40
2007,05,29,00,37,8.40
2007,05,29,00,38,8.40
2007,05,29,00,39,8.40
2007,05,29,00,40,8.40
2007,05,29,00,41,8.40
2007,05,29,00,42,8.40
2007,05,29,00,43,8.40
2007,05,29,00,44,8.40
2007,05,29,00,45,8.40
2007,05,29,00,46,8.30
2007,05,29,00,47,8.30
2007,05,29,00,48,8.30
2007,05,29,00,49,8.30
2007,05,29,00,50,8.20
2007,05,29,00,51,8.20
2007,05,29,00,52,8.20
2007,05,29,00,53,8.20
2007,05,29,00,54,8.20
2007,05,29,00,55,8.20
2007,05,29,00,56,8.20
2007,05,29,00,57,8.20
2007,05,29,00,58,8.20
2007,05,29,00,59,8.20
2007,05,29,01,00,8.20
2007,05,29,01,01,8.20
2007,05,29,01,02,8.20
2007,05,29,01,03,8.20
2007,05,29,01,04,8.20
2007,05,29,01,05,8.20
2007,05,29,01,06,8.20
2007,05,29,01,07,8.20
2007,05,29,01,08,8.10
2007,05,29,01,09,8.10
2007,05,29,01,10,8.10
2007,05,29,01,11,8.10
2007,05,29,01,12,8.10
2007,05,29,01,13,8.10
2007,05,29,01,14,8.10
2007,05,29,01,15,8.10
2007,05,29,01,16,8.10
2007,05,29,01,17,8.10
2007,05,29,01,18,8.00
2007,05,29,01,19,8.00
2007,05,29,01,20,8.00
2007,05,29,01,21,8.00
2007,05,29,01,22,8.00
2007,05,29,01,23,8.00
2007,05,29,01,24,7.90
2007,05,29,01,25,7.90
2007,05,29,01,26,7.90
2007,05,29,01,27,7.90
2007,05,29,01,28,7.90
2007,05,29,01,29,7.90
2007,05,29,01,30,7.90
2007,05,29,01,31,7.90
2007,05,29,01,32,7.90
2007,05,29,01,33,7.90
2007,05,29,01,34,7.90
2007,05,29,01,35,7.80
2007,05,29,01,36,7.80
2007,05,29,01,37,7.80
2007,05,29,01,38,7.80
2007,05,29,01,39,7.80
2007,05,29,01,40,7.80
2007,05,29,01,41,7.80
2007,05,29,01,42,7.80
2007,05,29,01,43,7.80
2007,05,29,01,44,7.80
2007,05,29,01,45,7.80
2007,05,29,01,46,7.80
2007,05,29,01,47,7.80
2007,05,29,01,48,7.80
2007,05,29,01,49,7.80
2007,05,29,01,50,7.80
2007,05,29,01,51,7.80
2007,05,29,01,52,7.80
2007,05,29,01,53,7.80
2007,05,29,01,54,7.80
2007,05,29,01,55,7.80
2007,05,29,01,56,7.80
2007,05,29,01,57,7.80
2007,05,29,01,58,7.80
2007,05,29,01,59,7.80
2007,05,29,02,00,7.80
2007,05,29,02,01,7.80
2007,05,29,02,02,7.80
2007,05,29,02,03,7.80
2007,05,29,02,04,7.80
2007,05,29,02,05,7.80
2007,05,29,02,06,7.80
2007,05,29,02,07,7.80
2007,05,29,02,08,7.80
2007,05,29,02,09,7.80
2007,05,29,02,10,7.80
2007,05,29,02,11,7.80
2007,05,29,02,12,7.80
2007,05,29,02,13,7.80
2007,05,29,02,14,7.80
2007,05,29,02,15,7.80
2007,05,29,02,16,7.80
2007,05,29,02,17,7.80
2007,05,29,02,18,7.80
2007,05,29,02,19,7.80
2007,05,29,02,20,7.80
2007,05,29,02,21,7.80
2007,05,29,02,22,7.70
2007,05,29,02,23,7.70
2007,05,29,02,24,7.70
2007,05,29,02,25,7.70
2007,05,29,02,26,7.70
2007,05,29,02,27,7.70
2007,05,29,02,28,7.70
2007,05,29,02,29,7.70
2007,05,29,02,30,7.70
2007,05,29,02,31,7.70
2007,05,29,02,32,7.70
2007,05,29,02,33,7.70
2007,05,29,02,34,7.70
2007,05,29,02,35,7.70
2007,05,29,02,36,7.70
2007,05,29,02,37,7.60
2007,05,29,02,38,7.60
2007,05,29,02,39,7.60
2007,05,29,02,40,7.60
2007,05,29,02,41,7.50
2007,05,29,02,42,7.50
2007,05,29,02,43,7.50
2007,05,29,02,44,7.50
2007,05,29,02,45,7.50
2007,05,29,02,46,7.50
2007,05,29,02,47,7.50
2007,05,29,02,48,7.50
2007,05,29,02,49,7.60
2007,05,29,02,50,7.60
2007,05,29,02,51,7.60
2007,05,29,02,52,7.60
2007,05,29,02,53,7.60
2007,05,29,02,54,7.60
2007,05,29,02,55,7.60
2007,05,29,02,56,7.60
2007,05,29,02,57,7.60
2007,05,29,02,58,7.60
2007,05,29,02,59,7.60
2007,05,29,03,00,7.60
2007,05,29,03,01,7.60
2007,05,29,03,02,7.60
2007,05,29,03,03,7.60
2007,05,29,03,04,7.60
2007,05,29,03,05,7.60
2007,05,29,03,06,7.60
2007,05,29,03,07,7.60
2007,05,29,03,08,7.60
2007,05,29,03,09,7.60
2007,05,29,03,10,7.60
2007,05,29,03,11,7.60
2007,05,29,03,12,7.60
2007,05,29,03,13,7.60
2007,05,29,03,14,7.50
2007,05,29,03,15,7.50
2007,05,29,03,16,7.50
2007,05,29,03,17,7.50
2007,05,29,03,18,7.50
2007,05,29,03,19,7.50
2007,05,29,03,20,7.50
2007,05,29,03,21,7.50
2007,05,29,03,22,7.50
2007,05,29,03,23,7.50
2007,05,29,03,24,7.50
2007,05,29,03,25,7.40
2007,05,29,03,26,7.40
2007,05,29,03,27,7.40
2007,05,29,03,28,7.40
2007,05,29,03,29,7.40
2007,05,29,03,30,7.40
2007,05,29,03,31,7.40
2007,05,29,03,32,7.40
2007,05,29,03,33,7.40
2007,05,29,03,34,7.40
2007,05,29,03,35,7.40
2007,05,29,03,36,7.40
2007,05,29,03,37,7.40
2007,05,29,03,38,7.40
2007,05,29,03,39,7.40
2007,05,29,03,40,7.40
2007,05,29,03,41,7.40
2007,05,29,03,42,7.40
2007,05,29,03,43,7.40
2007,05,29,03,44,7.40
2007,05,29,03,45,7.40
2007,05,29,03,46,7.40
2007,05,29,03,47,7.40
2007,05,29,03,48,7.40
2007,05,29,03,49,7.40
2007,05,29,03,50,7.40
2007,05,29,03,51,7.40
2007,05,29,03,52,7.40
2007,05,29,03,53,7.30
2007,05,29,03,54,7.30
2007,05,29,03,55,7.30
2007,05,29,03,56,7.30
2007,05,29,03,57,7.30
2007,05,29,03,58,7.30
2007,05,29,03,59,7.30
2007,05,29,04,00,7.30
2007,05,29,04,01,7.30
2007,05,29,04,02,7.30
2007,05,29,04,03,7.30
2007,05,29,04,04,7.30
2007,05,29,04,05,7.30
2007,05,29,04,06,7.30
2007,05,29,04,07,7.30
2007,05,29,04,08,7.30
2007,05,29,04,09,7.30
2007,05,29,04,10,7.30
2007,05,29,04,11,7.30
2007,05,29,04,12,7.30
2007,05,29,04,13,7.30
2007,05,29,04,14,7.30
2007,05,29,04,15,7.30
2007,05,29,04,16,7.30
2007,05,29,04,17,7.30
2007,05,29,04,18,7.30
2007,05,29,04,19,7.30
2007,05,29,04,20,7.30
2007,05,29,04,21,7.30
2007,05,29,04,22,7.30
2007,05,29,04,23,7.20
2007,05,29,04,24,7.30
2007,05,29,04,25,7.20
2007,05,29,04,26,7.20
2007,05,29,04,27,7.20
2007,05,29,04,28,7.20
2007,05,29,04,29,7.20
2007,05,29,04,30,7.20
2007,05,29,04,31,7.20
2007,05,29,04,32,7.20
2007,05,29,04,33,7.20
2007,05,29,04,34,7.20
2007,05,29,04,35,7.20
2007,05,29,04,36,7.20
2007,05,29,04,37,7.20
2007,05,29,04,38,7.20
2007,05,29,04,39,7.10
2007,05,29,04,40,7.10
2007,05,29,04,41,7.10
2007,05,29,04,42,7.10
2007,05,29,04,43,7.10
2007,05,29,04,44,7.10
2007,05,29,04,45,7.10
2007,05,29,04,46,7.10
2007,05,29,04,47,7.10
2007,05,29,04,48,7.10
2007,05,29,04,49,7.10
2007,05,29,04,50,7.10
2007,05,29,04,51,7.10
2007,05,29,04,52,7.10
2007,05,29,04,53,7.10
2007,05,29,04,54,7.10
2007,05,29,04,55,7.10
2007,05,29,04,56,7.10
2007,05,29,04,57,7.10
2007,05,29,04,58,7.10
2007,05,29,04,59,7.10
2007,05,29,05,00,7.10
2007,05,29,05,01,7.00
2007,05,29,05,02,7.00
2007,05,29,05,03,7.00
2007,05,29,05,04,7.00
2007,05,29,05,05,7.00
2007,05,29,05,06,7.00
2007,05,29,05,07,7.00
2007,05,29,05,08,7.00
2007,05,29,05,09,7.00
2007,05,29,05,10,7.00
2007,05,29,05,11,7.00
2007,05,29,05,12,7.00
2007,05,29,05,13,7.00
2007,05,29,05,14,7.00
2007,05,29,05,15,7.00
2007,05,29,05,16,7.00
2007,05,29,05,17,7.00
2007,05,29,05,18,6.90
2007,05,29,05,19,6.90
2007,05,29,05,20,6.90
2007,05,29,05,21,6.90
2007,05,29,05,22,6.90
2007,05,29,05,23,6.90
2007,05,29,05,24,6.90
2007,05,29,05,25,6.80
2007,05,29,05,26,6.80
2007,05,29,05,27,6.80
2007,05,29,05,28,6.80
2007,05,29,05,29,6.80
2007,05,29,05,30,6.80
2007,05,29,05,31,6.80
2007,05,29,05,32,6.80
2007,05,29,05,33,6.80
2007,05,29,05,34,6.80
2007,05,29,05,35,6.80
2007,05,29,05,36,6.80
2007,05,29,05,37,6.80
2007,05,29,05,38,6.80
2007,05,29,05,39,6.80
2007,05,29,05,40,6.80
2007,05,29,05,41,6.90
2007,05,29,05,42,6.90
2007,05,29,05,43,6.90
2007,05,29,05,44,6.90
2007,05,29,05,45,6.90
2007,05,29,05,46,6.90
2007,05,29,05,47,6.90
2007,05,29,05,48,6.90
2007,05,29,05,49,6.90
2007,05,29,05,50,6.90
2007,05,29,05,51,6.90
2007,05,29,05,52,6.90
2007,05,29,05,53,6.90
2007,05,29,05,54,6.90
2007,05,29,05,55,6.90
2007,05,29,05,56,6.90
2007,05,29,05,57,7.00
2007,05,29,05,58,7.00
2007,05,29,05,59,7.00
2007,05,29,06,00,7.00
2007,05,29,06,01,7.10
2007,05,29,06,02,7.10
2007,05,29,06,03,7.10
2007,05,29,06,04,7.10
2007,05,29,06,05,7.10
2007,05,29,06,06,7.10
2007,05,29,06,07,7.10
2007,05,29,06,08,7.10
2007,05,29,06,09,7.20
2007,05,29,06,10,7.20
2007,05,29,06,11,7.20
2007,05,29,06,12,7.20
2007,05,29,06,13,7.30
2007,05,29,06,14,7.30
2007,05,29,06,15,7.30
2007,05,29,06,16,7.30
2007,05,29,06,17,7.30
2007,05,29,06,18,7.30
2007,05,29,06,19,7.30
2007,05,29,06,20,7.40
2007,05,29,06,21,7.40
2007,05,29,06,22,7.40
2007,05,29,06,23,7.40
2007,05,29,06,24,7.60
2007,05,29,06,25,7.60
2007,05,29,06,26,7.70
2007,05,29,06,27,7.70
2007,05,29,06,28,7.80
2007,05,29,06,29,7.80
2007,05,29,06,30,7.80
2007,05,29,06,31,7.90
2007,05,29,06,32,8.00
2007,05,29,06,33,8.00
2007,05,29,06,34,8.00
2007,05,29,06,35,8.10
2007,05,29,06,36,8.10
2007,05,29,06,37,8.10
2007,05,29,06,38,8.10
2007,05,29,06,39,8.10
2007,05,29,06,40,8.10
2007,05,29,06,41,8.20
2007,05,29,06,42,8.20
2007,05,29,06,43,8.20
2007,05,29,06,44,8.20
2007,05,29,06,45,8.30
2007,05,29,06,46,8.30
2007,05,29,06,47,8.40
2007,05,29,06,48,8.40
2007,05,29,06,49,8.40
2007,05,29,06,50,8.50
2007,05,29,06,51,8.50
2007,05,29,06,52,8.50
2007,05,29,06,53,8.60
2007,05,29,06,54,8.60
2007,05,29,06,55,8.70
2007,05,29,06,56,8.70
2007,05,29,06,57,8.70
2007,05,29,06,58,8.80
2007,05,29,06,59,8.90
2007,05,29,07,00,8.90
2007,05,29,07,01,9.00
2007,05,29,07,02,9.00
2007,05,29,07,03,9.20
2007,05,29,07,04,9.20
2007,05,29,07,05,9.30
2007,05,29,07,06,9.40
2007,05,29,07,07,9.40
2007,05,29,07,08,9.50
2007,05,29,07,09,9.50
2007,05,29,07,10,9.70
2007,05,29,07,11,9.70
2007,05,29,07,12,9.70
2007,05,29,07,13,9.80
2007,05,29,07,14,9.80
2007,05,29,07,15,9.90
2007,05,29,07,16,10.00
2007,05,29,07,17,10.10
2007,05,29,07,18,10.20
2007,05,29,07,19,10.20
2007,05,29,07,20,10.30
2007,05,29,07,21,10.40
2007,05,29,07,22,10.40
2007,05,29,07,23,10.60
2007,05,29,07,24,10.60
2007,05,29,07,25,10.70
2007,05,29,07,26,10.70
2007,05,29,07,27,10.80
2007,05,29,07,28,10.90
2007,05,29,07,29,10.90
2007,05,29,07,30,11.00
2007,05,29,07,31,11.10
2007,05,29,07,32,11.10
2007,05,29,07,33,11.20
2007,05,29,07,34,11.20
2007,05,29,07,35,11.30
2007,05,29,07,36,11.40
2007,05,29,07,37,11.40
2007,05,29,07,38,11.40
2007,05,29,07,39,11.50
2007,05,29,07,40,11.60
2007,05,29,07,41,11.60
2007,05,29,07,42,11.60
2007,05,29,07,43,11.60
2007,05,29,07,44,11.70
2007,05,29,07,45,11.70
2007,05,29,07,46,11.80
2007,05,29,07,47,11.80
2007,05,29,07,48,11.80
2007,05,29,07,49,11.80
2007,05,29,07,50,11.80
2007,05,29,07,51,11.80
2007,05,29,07,52,11.90
2007,05,29,07,53,11.90
2007,05,29,07,54,11.90
2007,05,29,07,55,12.00
2007,05,29,07,56,12.00
2007,05,29,07,57,12.00
2007,05,29,07,58,12.10
2007,05,29,07,59,12.10
2007,05,29,08,00,12.20
2007,05,29,08,01,12.20
2007,05,29,08,02,12.20
2007,05,29,08,03,12.20
2007,05,29,08,04,12.30
2007,05,29,08,05,12.30
2007,05,29,08,06,12.30
2007,05,29,08,07,12.30
2007,05,29,08,08,12.40
2007,05,29,08,09,12.40
2007,05,29,08,10,12.40
2007,05,29,08,11,12.40
2007,05,29,08,12,12.50
2007,05,29,08,13,12.50
2007,05,29,08,14,12.50
2007,05,29,08,15,12.50
2007,05,29,08,16,12.50
2007,05,29,08,17,12.50
2007,05,29,08,18,12.50
2007,05,29,08,19,12.50
2007,05,29,08,20,12.60
2007,05,29,08,21,12.60
2007,05,29,08,22,12.60
2007,05,29,08,23,12.60
2007,05,29,08,24,12.70
2007,05,29,08,25,12.70
2007,05,29,08,26,12.70
2007,05,29,08,27,12.70
2007,05,29,08,28,12.70
2007,05,29,08,29,12.70
2007,05,29,08,30,12.70
2007,05,29,08,31,12.70
2007,05,29,08,32,12.70
2007,05,29,08,33,12.70
2007,05,29,08,34,12.70
2007,05,29,08,35,12.70
2007,05,29,08,36,12.80
2007,05,29,08,37,12.80
2007,05,29,08,38,12.80
2007,05,29,08,39,12.80
2007,05,29,08,40,12.80
2007,05,29,08,41,12.80
2007,05,29,08,42,12.90
2007,05,29,08,43,12.90
2007,05,29,08,44,13.00
2007,05,29,08,45,13.00
2007,05,29,08,46,13.10
2007,05,29,08,47,13.20
2007,05,29,08,48,13.20
2007,05,29,08,49,13.30
2007,05,29,08,50,13.30
2007,05,29,08,51,13.30
2007,05,29,08,52,13.30
2007,05,29,08,53,13.30
2007,05,29,08,54,13.30
2007,05,29,08,55,13.30
2007,05,29,08,56,13.30
2007,05,29,08,57,13.40
2007,05,29,08,58,13.40
2007,05,29,08,59,13.40
2007,05,29,09,00,13.40
2007,05,29,09,01,13.30
2007,05,29,09,02,13.30
2007,05,29,09,03,13.30
2007,05,29,09,04,13.30
2007,05,29,09,05,13.30
2007,05,29,09,06,13.30
2007,05,29,09,07,13.30
2007,05,29,09,08,13.40
2007,05,29,09,09,13.40
2007,05,29,09,10,13.50
2007,05,29,09,11,13.60
2007,05,29,09,12,13.70
2007,05,29,09,13,13.70
2007,05,29,09,14,13.70
2007,05,29,09,15,13.60
2007,05,29,09,16,13.60
2007,05,29,09,17,13.60
2007,05,29,09,18,13.60
2007,05,29,09,19,13.70
2007,05,29,09,20,13.70
2007,05,29,09,21,13.70
2007,05,29,09,22,13.80
2007,05,29,09,23,13.90
2007,05,29,09,24,13.90
2007,05,29,09,25,13.90
2007,05,29,09,26,13.90
2007,05,29,09,27,13.90
2007,05,29,09,28,13.80
2007,05,29,09,29,13.80
2007,05,29,09,30,13.80
2007,05,29,09,31,13.70
2007,05,29,09,32,13.70
2007,05,29,09,33,13.70
2007,05,29,09,34,13.70
2007,05,29,09,35,13.70
2007,05,29,09,36,13.60
2007,05,29,09,37,13.60
2007,05,29,09,38,13.60
2007,05,29,09,39,13.60
2007,05,29,09,40,13.60
2007,05,29,09,41,13.60
2007,05,29,09,42,13.60
2007,05,29,09,43,13.60
2007,05,29,09,44,13.70
2007,05,29,09,45,13.70
2007,05,29,09,46,13.70
2007,05,29,09,47,13.70
2007,05,29,09,48,13.70
2007,05,29,09,49,13.70
2007,05,29,09,50,13.70
2007,05,29,09,51,13.70
2007,05,29,09,52,13.70
2007,05,29,09,53,13.70
2007,05,29,09,54,13.70
2007,05,29,09,55,13.70
2007,05,29,09,56,13.80
2007,05,29,09,57,13.90
2007,05,29,09,58,14.00
2007,05,29,09,59,14.10
2007,05,29,10,00,14.20
2007,05,29,10,01,14.30
2007,05,29,10,02,14.40
2007,05,29,10,03,14.40
2007,05,29,10,04,14.50
2007,05,29,10,05,14.50
2007,05,29,10,06,14.50
2007,05,29,10,07,14.50
2007,05,29,10,08,14.60
2007,05,29,10,09,14.60
2007,05,29,10,10,14.70
2007,05,29,10,11,14.70
2007,05,29,10,12,14.70
2007,05,29,10,13,14.60
2007,05,29,10,14,14.60
2007,05,29,10,15,14.40
2007,05,29,10,16,14.40
2007,05,29,10,17,14.30
2007,05,29,10,18,14.30
2007,05,29,10,19,14.30
2007,05,29,10,20,14.40
2007,05,29,10,21,14.50
2007,05,29,10,22,14.50
2007,05,29,10,23,14.50
2007,05,29,10,24,14.50
2007,05,29,10,25,14.40
2007,05,29,10,26,14.40
2007,05,29,10,27,14.50
2007,05,29,10,28,14.50
2007,05,29,10,29,14.50
2007,05,29,10,30,14.50
2007,05,29,10,31,14.60
2007,05,29,10,32,14.60
2007,05,29,10,33,14.70
2007,05,29,10,34,14.60
2007,05,29,10,35,14.60
2007,05,29,10,36,14.60
2007,05,29,10,37,14.70
2007,05,29,10,38,14.80
2007,05,29,10,39,14.90
2007,05,29,10,40,15.00
2007,05,29,10,41,15.00
2007,05,29,10,42,15.20
2007,05,29,10,43,15.30
2007,05,29,10,44,15.40
2007,05,29,10,45,15.50
2007,05,29,10,46,15.50
2007,05,29,10,47,15.60
2007,05,29,10,48,15.70
2007,05,29,10,49,15.80
2007,05,29,10,50,15.80
2007,05,29,10,51,15.80
2007,05,29,10,52,15.80
2007,05,29,10,53,15.80
2007,05,29,10,54,15.80
2007,05,29,10,55,15.80
2007,05,29,10,56,15.80
2007,05,29,10,57,15.70
2007,05,29,10,58,15.60
2007,05,29,10,59,15.50
2007,05,29,11,00,15.50
2007,05,29,11,01,15.50
2007,05,29,11,02,15.50
2007,05,29,11,03,15.40
2007,05,29,11,04,15.30
2007,05,29,11,05,15.30
2007,05,29,11,06,15.40
2007,05,29,11,07,15.40
2007,05,29,11,08,15.50
2007,05,29,11,09,15.50
2007,05,29,11,10,15.40
2007,05,29,11,11,15.40
2007,05,29,11,12,15.40
2007,05,29,11,13,15.40
2007,05,29,11,14,15.50
2007,05,29,11,15,15.50
2007,05,29,11,16,15.50
2007,05,29,11,17,15.60
2007,05,29,11,18,15.80
2007,05,29,11,19,15.90
2007,05,29,11,20,16.00
2007,05,29,11,21,16.10
2007,05,29,11,22,16.20
2007,05,29,11,23,16.20
2007,05,29,11,24,16.20
2007,05,29,11,25,16.10
2007,05,29,11,26,16.10
2007,05,29,11,27,16.00
2007,05,29,11,28,15.90
2007,05,29,11,29,15.80
2007,05,29,11,30,15.80
2007,05,29,11,31,15.80
2007,05,29,11,32,15.80
2007,05,29,11,33,15.80
2007,05,29,11,34,15.80
2007,05,29,11,35,15.80
2007,05,29,11,36,15.80
2007,05,29,11,37,15.90
2007,05,29,11,38,16.00
2007,05,29,11,39,16.10
2007,05,29,11,40,16.20
2007,05,29,11,41,16.40
2007,05,29,11,42,16.40
2007,05,29,11,43,16.40
2007,05,29,11,44,16.40
2007,05,29,11,45,16.40
2007,05,29,11,46,16.40
2007,05,29,11,47,16.40
2007,05,29,11,48,16.40
2007,05,29,11,49,16.40
2007,05,29,11,50,16.40
2007,05,29,11,51,16.40
2007,05,29,11,52,16.40
2007,05,29,11,53,16.40
2007,05,29,11,54,16.40
2007,05,29,11,55,16.40
2007,05,29,11,56,16.40
2007,05,29,11,57,16.40
2007,05,29,11,58,16.40
2007,05,29,11,59,16.50
2007,05,29,12,00,16.60
2007,05,29,12,01,16.70
2007,05,29,12,02,16.80
2007,05,29,12,03,16.90
2007,05,29,12,04,16.90
2007,05,29,12,05,16.90
2007,05,29,12,06,17.00
2007,05,29,12,07,17.00
2007,05,29,12,08,17.00
2007,05,29,12,09,17.00
2007,05,29,12,10,16.80
2007,05,29,12,11,16.80
2007,05,29,12,12,16.80
2007,05,29,12,13,16.90
2007,05,29,12,14,17.00
2007,05,29,12,15,16.90
2007,05,29,12,16,16.80
2007,05,29,12,17,16.70
2007,05,29,12,18,16.80
2007,05,29,12,19,16.80
2007,05,29,12,20,16.80
2007,05,29,12,21,16.90
2007,05,29,12,22,17.00
2007,05,29,12,23,17.00
2007,05,29,12,24,17.10
2007,05,29,12,25,17.20
2007,05,29,12,26,17.30
2007,05,29,12,27,17.30
2007,05,29,12,28,17.30
2007,05,29,12,29,17.30
2007,05,29,12,30,17.30
2007,05,29,12,31,17.30
2007,05,29,12,32,17.40
2007,05,29,12,33,17.40
2007,05,29,12,34,17.30
2007,05,29,12,35,17.30
2007,05,29,12,36,17.30
2007,05,29,12,37,17.30
2007,05,29,12,38,17.30
2007,05,29,12,39,17.30
2007,05,29,12,40,17.30
2007,05,29,12,41,17.30
2007,05,29,12,42,17.30
2007,05,29,12,43,17.30
2007,05,29,12,44,17.40
2007,05,29,12,45,17.40
2007,05,29,12,46,17.40
2007,05,29,12,47,17.40
2007,05,29,12,48,17.40
2007,05,29,12,49,17.50
2007,05,29,12,50,17.50
2007,05,29,12,51,17.50
2007,05,29,12,52,17.60
2007,05,29,12,53,17.70
2007,05,29,12,54,17.80
2007,05,29,12,55,17.90
2007,05,29,12,56,17.90
2007,05,29,12,57,18.10
2007,05,29,12,58,18.20
2007,05,29,12,59,18.20
2007,05,29,13,00,18.20
2007,05,29,13,01,18.20
2007,05,29,13,02,18.20
2007,05,29,13,03,18.30
2007,05,29,13,04,18.30
2007,05,29,13,05,18.30
2007,05,29,13,06,18.20
2007,05,29,13,07,18.10
2007,05,29,13,08,18.10
2007,05,29,13,09,18.10
2007,05,29,13,10,18.10
2007,05,29,13,11,18.10
2007,05,29,13,12,18.10
2007,05,29,13,13,18.10
2007,05,29,13,14,18.10
2007,05,29,13,15,18.00
2007,05,29,13,16,18.00
2007,05,29,13,17,18.10
2007,05,29,13,18,18.10
2007,05,29,13,19,18.20
2007,05,29,13,20,18.30
2007,05,29,13,21,18.40
2007,05,29,13,22,18.30
2007,05,29,13,23,18.30
2007,05,29,13,24,18.30
2007,05,29,13,25,18.30
2007,05,29,13,26,18.20
2007,05,29,13,27,18.30
2007,05,29,13,28,18.40
2007,05,29,13,29,18.40
2007,05,29,13,30,18.50
2007,05,29,13,31,18.60
2007,05,29,13,32,18.70
2007,05,29,13,33,18.70
2007,05,29,13,34,18.80
2007,05,29,13,35,18.80
2007,05,29,13,36,18.70
2007,05,29,13,37,18.70
2007,05,29,13,38,18.70
2007,05,29,13,39,18.80
2007,05,29,13,40,18.80
2007,05,29,13,41,18.90
2007,05,29,13,42,18.90
2007,05,29,13,43,19.10
2007,05,29,13,44,19.20
2007,05,29,13,45,19.20
2007,05,29,13,46,19.10
2007,05,29,13,47,19.10
2007,05,29,13,48,19.00
2007,05,29,13,49,18.90
2007,05,29,13,50,18.90
2007,05,29,13,51,19.10
2007,05,29,13,52,19.00
2007,05,29,13,53,18.90
2007,05,29,13,54,18.90
2007,05,29,13,55,18.90
2007,05,29,13,56,18.90
2007,05,29,13,57,18.80
2007,05,29,13,58,18.70
2007,05,29,13,59,18.70
2007,05,29,14,00,18.70
2007,05,29,14,01,18.70
2007,05,29,14,02,18.70
2007,05,29,14,03,18.70
2007,05,29,14,04,18.70
2007,05,29,14,05,18.70
2007,05,29,14,06,18.70
2007,05,29,14,07,18.70
2007,05,29,14,08,18.70
2007,05,29,14,09,18.70
2007,05,29,14,10,18.90
2007,05,29,14,11,18.90
2007,05,29,14,12,18.90
2007,05,29,14,13,19.10
2007,05,29,14,14,19.10
2007,05,29,14,15,19.20
2007,05,29,14,16,19.30
2007,05,29,14,17,19.40
2007,05,29,14,18,19.30
2007,05,29,14,19,19.40
2007,05,29,14,20,19.40
2007,05,29,14,21,19.40
2007,05,29,14,22,19.50
2007,05,29,14,23,19.50
2007,05,29,14,24,19.50
2007,05,29,14,25,19.50
2007,05,29,14,26,19.50
2007,05,29,14,27,19.50
2007,05,29,14,28,19.60
2007,05,29,14,29,19.60
2007,05,29,14,30,19.60
2007,05,29,14,31,19.70
2007,05,29,14,32,19.80
2007,05,29,14,33,19.90
2007,05,29,14,34,19.90
2007,05,29,14,35,19.90
2007,05,29,14,36,19.90
2007,05,29,14,37,19.90
2007,05,29,14,38,19.90
2007,05,29,14,39,20.10
2007,05,29,14,40,20.00
2007,05,29,14,41,20.00
2007,05,29,14,42,20.10
2007,05,29,14,43,20.10
2007,05,29,14,44,20.10
2007,05,29,14,45,20.10
2007,05,29,14,46,20.20
2007,05,29,14,47,20.20
2007,05,29,14,48,20.20
2007,05,29,14,49,20.30
2007,05,29,14,50,20.30
2007,05,29,14,51,20.30
2007,05,29,14,52,20.30
2007,05,29,14,53,20.30
2007,05,29,14,54,20.30
2007,05,29,14,55,20.20
2007,05,29,14,56,20.20
2007,05,29,14,57,20.10
2007,05,29,14,58,20.10
2007,05,29,14,59,20.10
2007,05,29,15,00,20.00
2007,05,29,15,01,19.90
2007,05,29,15,02,20.00
2007,05,29,15,03,20.10
2007,05,29,15,04,20.10
2007,05,29,15,05,20.20
2007,05,29,15,06,20.20
2007,05,29,15,07,20.20
2007,05,29,15,08,20.30
2007,05,29,15,09,20.20
2007,05,29,15,10,20.20
2007,05,29,15,11,20.20
2007,05,29,15,12,20.20
2007,05,29,15,13,20.20
2007,05,29,15,14,20.20
2007,05,29,15,15,20.30
2007,05,29,15,16,20.30
2007,05,29,15,17,20.40
2007,05,29,15,18,20.50
2007,05,29,15,19,20.50
2007,05,29,15,20,20.50
2007,05,29,15,21,20.60
2007,05,29,15,22,20.60
2007,05,29,15,23,20.60
2007,05,29,15,24,20.60
2007,05,29,15,25,20.60
2007,05,29,15,26,20.60
2007,05,29,15,27,20.50
2007,05,29,15,28,20.50
2007,05,29,15,29,20.60
2007,05,29,15,30,20.60
2007,05,29,15,31,20.60
2007,05,29,15,32,20.70
2007,05,29,15,33,20.70
2007,05,29,15,34,20.80
2007,05,29,15,35,20.90
2007,05,29,15,36,20.90
2007,05,29,15,37,20.90
2007,05,29,15,38,21.00
2007,05,29,15,39,21.00
2007,05,29,15,40,21.10
2007,05,29,15,41,21.10
2007,05,29,15,42,21.20
2007,05,29,15,43,21.20
2007,05,29,15,44,21.10
2007,05,29,15,45,21.10
2007,05,29,15,46,21.10
2007,05,29,15,47,21.00
2007,05,29,15,48,21.00
2007,05,29,15,49,21.00
2007,05,29,15,50,21.00
2007,05,29,15,51,21.00
2007,05,29,15,52,21.00
2007,05,29,15,53,21.00
2007,05,29,15,54,21.10
2007,05,29,15,55,21.10
2007,05,29,15,56,21.10
2007,05,29,15,57,21.10
2007,05,29,15,58,21.20
2007,05,29,15,59,21.20
2007,05,29,16,00,21.30
2007,05,29,16,01,21.40
2007,05,29,16,02,21.40
2007,05,29,16,03,21.40
2007,05,29,16,04,21.30
2007,05,29,16,05,21.40
2007,05,29,16,06,21.40
2007,05,29,16,07,21.40
2007,05,29,16,08,21.40
2007,05,29,16,09,21.40
2007,05,29,16,10,21.40
2007,05,29,16,11,21.50
2007,05,29,16,12,21.60
2007,05,29,16,13,21.70
2007,05,29,16,14,21.70
2007,05,29,16,15,21.70
2007,05,29,16,16,21.70
2007,05,29,16,17,21.80
2007,05,29,16,18,21.90
2007,05,29,16,19,22.10
2007,05,29,16,20,22.10
2007,05,29,16,21,22.10
2007,05,29,16,22,22.10
2007,05,29,16,23,22.10
2007,05,29,16,24,22.10
2007,05,29,16,25,22.10
2007,05,29,16,26,22.10
2007,05,29,16,27,22.10
2007,05,29,16,28,22.10
2007,05,29,16,29,22.10
2007,05,29,16,30,22.10
2007,05,29,16,31,22.10
2007,05,29,16,32,22.00
2007,05,29,16,33,22.00
2007,05,29,16,34,22.00
2007,05,29,16,35,22.00
2007,05,29,16,36,22.10
2007,05,29,16,37,22.10
2007,05,29,16,38,22.10
2007,05,29,16,39,22.10
2007,05,29,16,40,22.20
2007,05,29,16,41,22.20
2007,05,29,16,42,22.20
2007,05,29,16,43,22.20
2007,05,29,16,44,22.20
2007,05,29,16,45,22.20
2007,05,29,16,46,22.30
2007,05,29,16,47,22.30
2007,05,29,16,48,22.30
2007,05,29,16,49,22.30
2007,05,29,16,50,22.30
2007,05,29,16,51,22.30
2007,05,29,16,52,22.30
2007,05,29,16,53,22.30
2007,05,29,16,54,22.20
2007,05,29,16,55,22.10
2007,05,29,16,56,22.10
2007,05,29,16,57,22.10
2007,05,29,16,58,22.10
2007,05,29,16,59,22.10
2007,05,29,17,00,22.00
2007,05,29,17,01,22.10
2007,05,29,17,02,22.10
2007,05,29,17,03,22.10
2007,05,29,17,04,22.10
2007,05,29,17,05,22.10
2007,05,29,17,06,22.10
2007,05,29,17,07,22.10
2007,05,29,17,08,22.10
2007,05,29,17,09,22.10
2007,05,29,17,10,22.10
2007,05,29,17,11,22.10
2007,05,29,17,12,22.10
2007,05,29,17,13,22.10
2007,05,29,17,14,22.10
2007,05,29,17,15,22.10
2007,05,29,17,16,22.10
2007,05,29,17,17,22.10
2007,05,29,17,18,22.10
2007,05,29,17,19,22.10
2007,05,29,17,20,22.10
2007,05,29,17,21,22.10
2007,05,29,17,22,22.10
2007,05,29,17,23,22.00
2007,05,29,17,24,22.00
2007,05,29,17,25,21.90
2007,05,29,17,26,21.80
2007,05,29,17,27,21.80
2007,05,29,17,28,21.80
2007,05,29,17,29,21.80
2007,05,29,17,30,21.80
2007,05,29,17,31,21.70
2007,05,29,17,32,21.60
2007,05,29,17,33,21.70
2007,05,29,17,34,21.70
2007,05,29,17,35,21.70
2007,05,29,17,36,21.70
2007,05,29,17,37,21.70
2007,05,29,17,38,21.70